El Paso, TX

5:02 AM MDT on April 24, 2018 (GMT -0600)
El Paso International

Weather History for KELP - July, 2012

Change the Weather History Date:

Tuesday, July 10, 2012

  Actual Average Record
Temperature  
Mean Temperature 78 °F 83 °F  
Max Temperature 88 °F 95 °F 112 °F (1979)
Min Temperature 67 °F 71 °F 57 °F (1985)
Degree Days  
Heating Degree Days 0 0  
Month to date heating degree days 0 0  
Since 1 June heating degree days 0 0  
Since 1 July heating degree days 0 0  
Cooling Degree Days 13 18  
Month to date cooling degree days 167 183  
Year to date cooling degree days 1382 1062  
Since 1 June cooling degree days 812 685  
Growing Degree Days 27 (Base 50)    
Moisture  
Dew Point 61 °F    
Average Humidity 62    
Maximum Humidity 87    
Minimum Humidity 36    
Precipitation  
Precipitation 0.11 in 0.04 in 1.33 in (1911)
Month to date precipitation 1.20 0.42  
Year to date precipitation 2.58 3.18  
Snow  
Snow 0.00 in - - ()
Month to date snowfall 0.0  
Since 1 June snowfall 0.0  
Since 1 July snowfall 0.0  
Snow Depth 0.00 in    
Sea Level Pressure  
Sea Level Pressure 29.95 in    
Wind  
Wind Speed 8 mph (NE)    
Max Wind Speed 24 mph    
Max Gust Speed 30 mph    
Visibility 10 miles    
Events Rain , Thunderstorm    
T = Trace of Precipitation, MM = Missing Value Source: NWS Daily Summary

Daily Weather History Graph

Daily Weather History Graph

Search for Another Location

Airport or City:

Astronomy

Jul. 10, 2012 Rise Set
Actual Time 6:08 AM MDT 8:13 PM MDT
Civil Twilight 5:40 AM MDT 8:41 PM MDT
Nautical Twilight 5:06 AM MDT 9:15 PM MDT
Astronomical Twilight 4:30 AM MDT 9:51 PM MDT
Moon No Moon Rise 1:05 PM MDT (7/10)
Length of Visible Light 15h 01m
Length of Day
14h 05m
Waning Gibbous, 53% of the Moon is Illuminated
Jul 10
Waning Gibbous
Jul 10
Last Quarter
Jul 18
New
Jul 26
First Quarter
Aug 1
Full

Hourly Weather History & Observations

Time (MDT) Temp. Heat Index Dew Point Humidity Pressure Visibility Wind Dir Wind Speed Gust Speed Precip Events Conditions
12:51 AM 66.9 °F - 62.1 °F 84% 29.92 in 10.0 mi ENE 20.7 mph 27.6 mph 0.02 in Rain , Thunderstorm Light Thunderstorms and Rain
1:51 AM 66.9 °F - 62.1 °F 84% 29.93 in 10.0 mi NE 12.7 mph - 0.04 in Rain , Thunderstorm Light Thunderstorms and Rain
2:51 AM 68.0 °F - 62.1 °F 81% 29.95 in 10.0 mi NE 8.1 mph 17.3 mph 0.02 in Rain , Thunderstorm Light Thunderstorms and Rain
3:08 AM 68.0 °F - 62.6 °F 83% 30.18 in 10.0 mi North 4.6 mph - 0.00 in   Overcast
3:51 AM 68.0 °F - 62.1 °F 81% 29.97 in 10.0 mi NNW 5.8 mph - N/A Rain Light Rain
4:51 AM 68.0 °F - 61.0 °F 78% 29.97 in 10.0 mi Calm Calm - 0.00 in Rain Light Rain
5:51 AM 66.9 °F - 62.1 °F 84% 29.97 in 10.0 mi Calm Calm - 0.04 in Rain Light Rain
6:51 AM 66.9 °F - 62.1 °F 84% 29.97 in 10.0 mi Calm Calm - 0.00 in Rain Light Rain
7:51 AM 68.0 °F - 63.0 °F 84% 29.98 in 10.0 mi Calm Calm - 0.01 in   Mostly Cloudy
8:51 AM 70.0 °F - 61.0 °F 73% 29.98 in 10.0 mi Calm Calm - N/A   Mostly Cloudy
9:51 AM 73.9 °F - 61.0 °F 64% 30.00 in 10.0 mi Variable 3.5 mph - N/A   Mostly Cloudy
10:51 AM 75.9 °F - 61.0 °F 60% 29.98 in 10.0 mi North 8.1 mph - N/A   Mostly Cloudy
11:51 AM 78.1 °F - 63.0 °F 60% 29.97 in 10.0 mi North 9.2 mph - N/A   Mostly Cloudy
12:51 PM 80.1 °F 81.1 °F 61.0 °F 52% 29.95 in 10.0 mi North 11.5 mph 21.9 mph N/A   Mostly Cloudy
1:51 PM 82.0 °F 83.0 °F 62.1 °F 51% 29.92 in 10.0 mi North 11.5 mph 18.4 mph N/A   Scattered Clouds
2:51 PM 84.0 °F 84.0 °F 60.1 °F 44% 29.88 in 10.0 mi North 12.7 mph 17.3 mph N/A   Scattered Clouds
3:51 PM 86.0 °F 85.0 °F 57.9 °F 38% 29.86 in 10.0 mi NNW 10.4 mph 16.1 mph N/A   Scattered Clouds
4:51 PM 87.1 °F 86.1 °F 57.9 °F 37% 29.84 in 10.0 mi NNE 11.5 mph 16.1 mph N/A   Mostly Cloudy
5:26 PM 82.4 °F 82.9 °F 60.8 °F 48% 30.04 in 10.0 mi ESE 16.1 mph 24.2 mph N/A   Mostly Cloudy
5:44 PM 80.6 °F 81.8 °F 62.6 °F 54% 30.04 in 10.0 mi East 17.3 mph 28.8 mph 0.00 in Rain , Thunderstorm Light Thunderstorms and Rain
5:51 PM 79.0 °F - 62.1 °F 56% 29.86 in 10.0 mi SE 11.5 mph - N/A Rain , Thunderstorm Light Thunderstorms and Rain
6:05 PM 78.8 °F - 62.6 °F 57% 30.05 in 10.0 mi SSE 8.1 mph - 0.00 in Rain Light Rain
6:51 PM 81.0 °F 81.6 °F 60.1 °F 49% 29.86 in 10.0 mi ENE 19.6 mph 24.2 mph 0.00 in   Mostly Cloudy
7:51 PM 78.1 °F - 59.0 °F 52% 29.88 in 10.0 mi ENE 18.4 mph 28.8 mph N/A   Mostly Cloudy
8:51 PM 77.0 °F - 60.1 °F 56% 29.89 in 10.0 mi ENE 12.7 mph - N/A   Mostly Cloudy
9:51 PM 75.9 °F - 60.1 °F 58% 29.92 in 10.0 mi ENE 9.2 mph - N/A   Mostly Cloudy
10:51 PM 75.0 °F - 61.0 °F 62% 29.93 in 10.0 mi ENE 5.8 mph - N/A   Mostly Cloudy
11:51 PM 75.0 °F - 61.0 °F 62% 29.93 in 10.0 mi NE 9.2 mph - N/A   Mostly Cloudy